AI4ZL Weather Reports


Display with metric or nautical units.
time (UTC)temp
F
wind
direction
speed
MPH
gust
MPH
rain 1hr
in
rain 24hr
in
rain mn
in
humidity
%
barometer
mb
20260901054243 72 0.0 0.0 0.00 0.00 0.00 99 1018.9
20260901053238 72 0.0 0.0 0.00 0.00 0.00 99 1018.9
20260901052233 73 0.0 0.0 0.00 0.00 0.00 99 1018.9
20260901051249 73 0.0 0.0 0.00 0.00 0.00 99 1018.8
20260901050244 73 0.0 0.0 0.00 0.00 0.00 99 1019.0
20260901045238 73 0.0 0.0 0.00 0.00 0.00 99 1018.9
20260901044233 74 0.0 0.0 0.00 0.00 0.00 99 1019.0
20260901043248 73 0.0 0.0 0.00 0.00 0.00 99 1018.8
20260901042305 74 0.0 0.0 0.00 0.00 0.00 99 1018.9
20260901041239 74 0.0 0.0 0.00 0.00 0.00 99 1018.9
20260901040232 74 0.0 0.0 0.00 0.00 0.00 99 1019.0
20260901035248 74 0.0 0.0 0.00 0.00 0.00 99 1019.2
20260901034244 74 0.0 0.0 0.00 0.00 0.00 99 1019.1
20260901033240 74 0.0 0.0 0.00 0.00 0.00 98 1019.1
20260901032255 74 0.0 0.0 0.00 0.00 0.00 98 1019.2
20260901031250 75 0.0 0.0 0.00 0.00 0.00 98 1019.2
20260901030245 75 0.0 0.0 0.00 0.00 0.00 98 1019.2
20260901025241 76 0.0 0.0 0.00 0.00 0.00 98 1019.1
20260901024236 76 0.0 0.0 0.00 0.00 0.00 98 1018.9
20260901023231 76 314 0.0 1.0 0.00 0.00 0.00 97 1018.7
20260901022246 77 0.0 0.0 0.00 0.00 0.00 97 1018.8
20260901021240 77 0.0 0.0 0.00 0.00 0.00 96 1018.8
20260901020234 77 308 0.0 1.0 0.00 0.00 0.00 95 1018.7
20260901015250 78 300 0.0 1.0 0.00 0.00 0.00 94 1018.7
20260901014245 78 325 0.0 1.0 0.00 0.00 0.00 93 1018.5
20260901013300 78 323 0.0 2.0 0.00 0.00 0.00 93 1018.5
20260901012235 78 307 0.0 1.0 0.00 0.00 0.00 93 1018.3
20260901011250 79 310 0.0 1.0 0.00 0.00 0.00 93 1018.1
20260901010305 80 306 1.0 1.0 0.00 0.00 0.00 90 1018.0
20260901005240 81 316 0.0 1.0 0.00 0.00 0.00 87 1017.9
20260901004234 82 0.0 0.0 0.00 0.00 0.00 84 1017.8
20260901003249 83 335 0.0 1.0 0.00 0.00 0.00 82 1017.8
20260901002305 86 0.0 0.0 0.00 0.00 0.00 79 1017.7
20260901001239 88 0.0 0.0 0.00 0.00 0.00 75 1017.6
20260901000233 89 0.0 0.0 0.00 0.00 0.00 73 1017.6
20260831235248 91 1 0.0 1.0 0.00 0.00 0.00 68 1017.6
20260831234244 92 11 0.0 1.0 0.00 0.00 0.00 64 1017.7
20260831233238 93 0.0 0.0 0.00 0.00 0.00 63 1017.9
20260831232232 93 329 0.0 1.0 0.00 0.00 0.00 62 1018.0
20260831231246 93 53 1.0 2.0 0.00 0.00 0.00 62 1017.9
20260831230241 93 73 1.0 2.0 0.00 0.00 0.00 61 1017.9
20260831225236 93 180 1.0 3.0 0.00 0.00 0.00 59 1018.1
20260831224250 93 138 2.0 4.0 0.00 0.00 0.00 60 1018.2
20260831223244 94 136 1.0 3.0 0.00 0.00 0.00 60 1018.1
20260831222239 94 189 1.0 2.0 0.00 0.00 0.00 60 1018.3
20260831221234 94 210 2.0 4.0 0.00 0.00 0.00 58 1018.5
20260831220249 94 214 2.0 6.0 0.00 0.00 0.00 57 1018.6
20260831215245 95 250 1.0 3.0 0.00 0.00 0.00 56 1018.8
20260831214238 96 262 2.0 4.0 0.00 0.00 0.00 56 1018.7
20260831213232 94 147 1.0 4.0 0.00 0.00 0.00 58 1018.7
20260831212307 95 127 2.0 4.0 0.00 0.00 0.00 60 1018.8
20260831211242 96 131 1.0 2.0 0.00 0.00 0.00 59 1018.8
20260831210236 96 159 2.0 4.0 0.00 0.00 0.00 57 1018.8
20260831205232 96 251 2.0 4.0 0.00 0.00 0.00 55 1018.9
20260831204247 96 265 2.0 6.0 0.00 0.00 0.00 54 1018.8
20260831203242 93 244 1.0 2.0 0.00 0.00 0.00 59 1018.9
20260831202238 94 231 1.0 3.0 0.00 0.00 0.00 58 1018.9
20260831201233 94 265 1.0 3.0 0.00 0.00 0.00 58 1019.2
20260831200246 95 199 2.0 4.0 0.00 0.00 0.00 59 1019.4
20260831195240 92 292 0.0 1.0 0.00 0.00 0.00 61 1019.4
20260831194255 96 232 2.0 4.0 0.00 0.00 0.00 58 1019.6
20260831193250 95 136 2.0 3.0 0.00 0.00 0.00 60 1019.6
20260831192245 94 271 1.0 4.0 0.00 0.00 0.00 58 1019.6
20260831191238 95 174 2.0 4.0 0.00 0.00 0.00 60 1019.7
20260831190233 95 179 2.0 4.0 0.00 0.00 0.00 60 1019.8
20260831185248 93 213 2.0 4.0 0.00 0.00 0.00 59 1019.8
20260831184243 94 259 3.0 8.0 0.00 0.00 0.00 60 1020.0
20260831183238 94 260 4.0 7.0 0.00 0.00 0.00 59 1020.0
20260831182234 93 179 2.0 4.0 0.00 0.00 0.00 60 1020.1
20260831181249 93 265 2.0 7.0 0.00 0.00 0.00 60 1020.1
20260831180242 93 260 3.0 6.0 0.00 0.00 0.00 61 1020.3
20260831175236 93 245 2.0 4.0 0.00 0.00 0.00 63 1020.4
20260831174231 93 265 2.0 4.0 0.00 0.00 0.00 63 1020.7
20260831173245 92 252 3.0 7.0 0.00 0.00 0.00 64 1020.6
20260831172240 92 256 2.0 6.0 0.00 0.00 0.00 62 1020.8
20260831171254 92 254 3.0 7.0 0.00 0.00 0.00 65 1020.8
20260831170309 91 211 2.0 4.0 0.00 0.00 0.00 66 1021.1
20260831165246 91 162 3.0 7.0 0.00 0.00 0.00 67 1021.1
20260831164242 90 196 3.0 6.0 0.00 0.00 0.00 67 1021.2
20260831163238 90 252 3.0 6.0 0.00 0.00 0.00 67 1021.3
20260831162234 91 233 2.0 6.0 0.00 0.00 0.00 67 1021.2
20260831161249 91 241 1.0 3.0 0.00 0.00 0.00 69 1021.3
20260831160245 89 245 3.0 7.0 0.00 0.00 0.00 68 1021.4
20260831155241 89 249 4.0 10.0 0.00 0.00 0.00 68 1021.4
20260831154237 89 259 5.0 11.0 0.00 0.00 0.00 68 1021.5
20260831153233 88 240 3.0 7.0 0.00 0.00 0.00 72 1021.4
20260831152248 88 225 3.0 6.0 0.00 0.00 0.00 72 1021.3
20260831151243 88 175 2.0 3.0 0.00 0.00 0.00 73 1021.3
20260831150238 87 183 2.0 4.0 0.00 0.00 0.00 75 1021.2
20260831145233 87 260 4.0 7.0 0.00 0.00 0.00 74 1021.2
20260831144309 86 257 3.0 7.0 0.00 0.00 0.00 76 1021.0
20260831143306 85 248 2.0 4.0 0.00 0.00 0.00 77 1021.0
20260831142242 84 208 3.0 4.0 0.00 0.00 0.00 79 1020.9
20260831141238 84 236 2.0 6.0 0.00 0.00 0.00 80 1020.8
20260831140234 83 205 2.0 3.0 0.00 0.00 0.00 81 1020.7
20260831135231 82 201 2.0 4.0 0.00 0.00 0.00 82 1020.8
20260831134307 82 209 2.0 4.0 0.00 0.00 0.00 83 1020.7
20260831133243 82 207 1.0 3.0 0.00 0.00 0.00 85 1020.7
20260831132240 81 203 1.0 2.0 0.00 0.00 0.00 86 1020.4
20260831131255 80 197 1.0 2.0 0.00 0.00 0.00 88 1020.4
20260831130249 79 179 1.0 2.0 0.00 0.00 0.00 90 1020.6
20260831125245 77 225 1.0 3.0 0.00 0.00 0.00 94 1020.4
20260831124240 75 0.0 0.0 0.00 0.00 0.00 96 1020.3
20260831123235 74 203 0.0 2.0 0.00 0.00 0.00 98 1020.3
20260831122249 74 0.0 0.0 0.00 0.00 0.00 99 1020.2
20260831121245 73 0.0 0.0 0.00 0.00 0.00 99 1020.1
20260831120300 73 0.0 0.0 0.00 0.00 0.00 99 1020.1
20260831115235 72 0.0 0.0 0.00 0.00 0.00 99 1019.7
20260831114231 72 0.0 0.0 0.00 0.00 0.00 99 1019.6
20260831113245 72 0.0 0.0 0.00 0.00 0.00 99 1019.6
20260831112301 72 0.0 0.0 0.00 0.00 0.00 99 1019.4
20260831111236 72 0.0 0.0 0.00 0.00 0.00 99 1019.3
20260831110251 72 0.0 0.0 0.00 0.00 0.00 99 1019.5
20260831105247 72 0.0 0.0 0.00 0.00 0.00 99 1019.4
20260831104242 72 0.0 0.0 0.00 0.00 0.00 99 1019.4
20260831103238 71 0.0 0.0 0.00 0.00 0.00 99 1019.4
20260831102233 71 0.0 0.0 0.00 0.00 0.00 99 1019.2
20260831101308 71 0.0 0.0 0.00 0.00 0.00 99 1019.1
20260831100242 72 0.0 0.0 0.00 0.00 0.00 99 1019.0
20260831095238 72 0.0 0.0 0.00 0.00 0.00 99 1019.0
20260831094233 72 0.0 0.0 0.00 0.00 0.00 99 1019.1
20260831093246 72 0.0 0.0 0.00 0.00 0.00 99 1018.9
20260831092242 72 0.0 0.0 0.00 0.00 0.00 99 1018.9
20260831091237 72 0.0 0.0 0.00 0.00 0.00 99 1018.9
20260831090232 73 0.0 0.0 0.00 0.00 0.00 99 1018.8
20260831085247 73 0.0 0.0 0.00 0.00 0.00 99 1018.7
20260831084301 73 0.0 0.0 0.00 0.00 0.00 99 1018.6
20260831083237 73 0.0 0.0 0.00 0.00 0.00 99 1018.6
20260831082252 73 0.0 0.0 0.00 0.00 0.00 99 1018.3
20260831081248 73 0.0 0.0 0.00 0.00 0.00 99 1018.4
20260831080303 73 0.0 0.0 0.00 0.00 0.00 99 1018.5
20260831075258 74 0.0 0.0 0.00 0.00 0.00 99 1018.3
20260831074233 73 0.0 0.0 0.00 0.00 0.00 99 1018.3
20260831073248 73 0.0 0.0 0.00 0.00 0.00 99 1018.3
20260831072243 73 0.0 0.0 0.00 0.00 0.00 99 1018.4
20260831071257 72 0.0 0.0 0.00 0.00 0.00 99 1018.4
20260831070232 72 0.0 0.0 0.00 0.00 0.00 99 1018.5
20260831065247 72 0.0 0.0 0.00 0.00 0.00 99 1018.7
20260831064303 72 0.0 0.0 0.00 0.00 0.00 99 1018.8
20260831063258 72 0.0 0.0 0.00 0.00 0.00 99 1018.8
20260831062234 73 0.0 0.0 0.00 0.00 0.00 99 1018.8
20260831061309 73 0.0 0.0 0.00 0.00 0.00 99 1018.8
20260831060243 73 0.0 0.0 0.00 0.00 0.00 99 1018.9
20260831055240 73 0.0 0.0 0.00 0.00 0.00 99 1018.9